STARLINK-36673

Last updated on Thu Mar 05 2026 00:02:08 GMT+0000 (Coordinated Universal Time)

1 67660U 26022N 26063.05812574 .00222499 00000+0 14466-2 0 9996 2 67660 97.2836 96.7752 0001485 94.0104 266.1331 15.75308407 4662
UTC large
Height (km)
Speed (km/s)
/
Latitude / Longitude
Inclination (degrees)
Orbital Period (minutes)
Azimuth
Elevation
Range (km)
Doppler Factor

Next 0 passes for location: London (51.5072 / 0.1276)

Sorry there are no passes over London.